Regional Weather Roundup
Issued by NWS

Home | Current Version | Previous Version | Graphics & Text | Print | Product List | Glossary Off
Versions: 1 2 3 4 5 6 7 8 9 10 11 12 13 14 15 16 17 18 19 20 21 22 23 24 25 26 27 28 29 30 31 32 33 34 35 36 37 38 39 40 41 42 43 44 45 46 47 48 49 50

000
ASUS43 KMKX 221700
RWRWI

WISCONSIN REGIONAL WEATHER ROUNDUP
NATIONAL WEATHER SERVICE MILWAUKEE/SULLIVAN WI
1200 PM CDT TUE APR 22 2014

NOTE: "FAIR" INDICATES FEW OR NO CLOUDS BELOW 12,000 FEET WITH NO
SIGNIFICANT WEATHER AND/OR OBSTRUCTIONS TO VISIBILITY.

WIZ001-002-006>008-014>016-023>028-221800-
NORTHWEST WISCONSIN

CITY           SKY/WX    TMP DP  RH WIND       PRES   REMARKS
SUPERIOR ARPT  MOSUNNY   46  25  43 NW12G18   30.12S
ASHLAND        PTSUNNY   42  29  59 NE12      30.11R
HAYWARD        MOSUNNY   47  21  35 VRB5      30.08S
SIREN          SUNNY     45  21  38 N13G18    30.11F
RICE LAKE      SUNNY     45  24  43 NW8G16    30.10S
LADYSMITH      NOT AVBL
EAU CLAIRE     SUNNY     50  24  36 NW9G25    30.07S
MENOMONIE      SUNNY     48  25  40 NW16      30.09S
NEW RICHMOND   SUNNY     48  29  47 N14G20    30.11F
OSCEOLA        SUNNY     48  29  47 NW16      30.15S
$$

WIZ003>005-009-010-017-018-221800-
NORTH CENTRAL WISCONSIN

CITY           SKY/WX    TMP DP  RH WIND       PRES   REMARKS
WOODRUFF       CLOUDY    39  24  55 NW14      30.03R WCI  31
RHINELANDER    CLOUDY    38  22  52 VRB6G25   30.02R WCI  33
EAGLE RIVER    CLOUDY    37  23  56 NW13G24   30.01R WCI  29
LAND O LAKES   CLOUDY    36  26  65 N12G18    30.01S WCI  28
PHILLIPS       PTSUNNY   41  23  50 NW15G22   30.04R
TOMAHAWK       CLOUDY    40  23  50 NW13G22   30.02R WCI  32
MEDFORD        MOSUNNY   44  26  49 N10G21    30.02R
MERRILL        MOSUNNY   43  25  48 NW13G20   30.00F
$$

WIZ029-030-035-036-043>047-221800-
CENTRAL WISCONSIN

CITY           SKY/WX    TMP DP  RH WIND       PRES   REMARKS
WAUSAU         MOSUNNY   46  24  42 N13G25    29.99S
MOSINEE        NOT AVBL
MARSHFIELD     MOSUNNY   48  29  47 N14       30.02R
STEVENS POINT  MOSUNNY   43  24  46 NW10G20   30.01S
WAUPACA        MOSUNNY   50  27  40 N12G18    30.00R
WAUTOMA        NOT AVBL
WISC RAPIDS    MOSUNNY   49  27  42 NW15      30.03S
CAMP DOUGLAS   MOSUNNY   52  25  35 NW9       30.03S
$$

WIZ011>013-019>022-031-037>040-048>050-221800-
NORTHEAST WISCONSIN

CITY           SKY/WX    TMP DP  RH WIND       PRES   REMARKS
ANTIGO         CLOUDY    39  27  61 N18       29.99S WCI  30
STURGEON BAY   CLOUDY    45  28  53 NW14      29.95S
GREEN BAY      PTSUNNY   46  32  58 NW20G26   29.97S
MANITOWOC      NOT AVBL
APPLETON       PTSUNNY   46  28  49 NW17G24   29.98S
CLINTONVILLE   PTSUNNY   45  27  49 NW17G23   29.98S
OSHKOSH        MOSUNNY   49  30  48 NW13      29.97S
$$

WIZ032>034-041-042-053>061-221800-
SOUTHWEST WISCONSIN

CITY           SKY/WX    TMP DP  RH WIND       PRES   REMARKS
LA CROSSE      SUNNY     51  28  41 NW15      30.07F
SPARTA         SUNNY     49  25  38 N12G23    30.07R
VIROQUA        FAIR      48  30  49 NW12G18   30.05S
BOSCOBEL       SUNNY     54  26  34 NW10G20   30.06S
PRAIRIE DU CHI SUNNY     51  26  38 N9G18     30.07S
PLATTEVILLE    FAIR      52  26  37 NW14G22   30.06R
$$

WIZ056-057-062-063-064-067-068-221800-
SOUTH CENTRAL WISCONSIN

CITY           SKY/WX    TMP DP  RH WIND       PRES   REMARKS
BARABOO/DELLS  SUNNY     48  26  41 NW12G21   30.02S
LONE ROCK      NOT AVBL
WATERTOWN      MOSUNNY   49  32  52 NW12G22   29.99S
MADISON        SUNNY     52  28  39 NW15      30.00F
MIDDLETON      FAIR      52  27  37 N15       30.01F
MONROE         SUNNY     51  28  40 NW8G16    30.01S
JANESVILLE     SUNNY    N/A N/A N/A N16G24    29.99F
$$

WIZ051-052-058>065-066-070>072-221800-
SOUTHEAST WISCONSIN

CITY           SKY/WX    TMP DP  RH WIND       PRES   REMARKS
MILWAUKEE      MOSUNNY   52  30  43 NW14      29.97S
WAUKESHA       SUNNY     48  30  49 NW13      29.98R
MILWAUKEE/TIMM SUNNY     52  28  40 NW16G23   29.97S
RACINE         SUNNY     53  30  41 NW10      29.98S
BURLINGTON     SUNNY     49  31  50 N9G18     29.98S
KENOSHA        SUNNY     52  30  43 NW7G18    29.97S
FOND DU LAC    MOSUNNY   51  30  44 NW17G25   29.97S
SHEBOYGAN      MOSUNNY   49  31  49 NW18      29.95S
WEST BEND      SUNNY     46  30  53 NW15      29.97R
JUNEAU         SUNNY     48  25  41 NW15G23   29.99S
$$

LSZ147-162-221800-
LAKE SUPERIOR

STATION/POSITION TIME  TEMP    WIND        PRES    WAVE
                       AIR SEA DIR/SP/G            HT/PER
                 (UTC) (F)     (DEG/KT/KT) (MB)    (FT/S)
DEVILS ISLAND    1600   38     300/  3/  4 1020.0R
PORT WING        1600   37     270/ 10/ 13 1019.6
SAXON HARBOR     1600          360/  9/ 12 1019.3R
$$

LMZ867-665-643>646-221800-
LAKE MICHIGAN

STATION/POSITION TIME  TEMP    WIND        PRES    WAVE
                       AIR SEA DIR/SP/G            HT/PER
                 (UTC) (F)     (DEG/KT/KT) (MB)    (FT/S)
NORTHPORT PIER   1600   35     320/ 11/ 13 1013.2S
SISTER BAY       1609   38     360/ 12/ 13   N/A
KEWAUNEE LAKESHO 1600   44     330/ 15/ 21 1014.4R
SHEBOYGAN LAKESH 1600   46     340/ 16/ 19 1014.5F
PORT WASHINGTON  1640   49     310/ 10/ 16 1015.2S
MILWAUKEE LAKESH 1600   46     300/ 11/ 16   N/A
KENOSHA   LAKESH 1600   47     320/ 13/ 20   N/A
$$

TC  - TEMPERATURE IN CELSIUS
VSB - VISIBILITY IN STATUTE MILES
WCI - WIND CHILL INDEX
HX  - HEAT INDEX




USA.gov is the U.S. government's official web portal to all federal, state and local government web resources and services.